Flag for United Kingdom Weather past 2 weeks in Ipswich, England, United Kingdom

Now
52 °F

Light rain. Partly sunny.


Feels Like: 48 °F
Forecast: 40 / 52 °F
Wind: 12 mph from Southwest

Location: Wattisham

Current Time: Apr 25, 2015 at 10:43:52 AM

Latest Report: Apr 25, 2015 at 9:50 AM


Visibility: 3 mi

Pressure: 29.65 "Hg

Humidity: 100%

Dew point: 52 °F

Location of IpswichLocation

Historic Weather in Ipswich — Graph

°F

Ipswich temperature yesterday

Maximum temperature yesterday: 66 °F (at 2:50 PM)
Minimum temperature yesterday: 41 °F (at 12:50 AM)
Average temperature yesterday: 53 °F

Past Weeks' High & Low Weather Summary

 TemperatureHumidityPressure
High73 °F (Apr 15, 2:50 PM)100% (Apr 13, 3:50 AM)30.57 "Hg (Apr 13, 3:50 AM)
Low34 °F (Apr 13, 4:50 AM)30% (Apr 11, 3:50 PM)29.65 "Hg (Apr 25, 5:50 AM)
Average49 °F71%30.19 "Hg
* Reported Apr 10 8:50 AM — Apr 25 8:50 AM, Ipswich, Weather by CustomWeather, © 2015

Note: Actual official high and low records may vary slightly from our data, if they occured in-between our weather recording intervals... More about our weather records

Advertising

Ipswich weather history for previous 24 hours

 ConditionsComfort  
Time TempWeatherWind HumidityBarometerVisibility
8:50 AM
Sat, Apr 25
52 °FDrizzle. Low clouds.8 mph94%29.65 "Hg3 mi
7:50 AM52 °FDrizzle. Low clouds.9 mph94%29.68 "Hg4 mi
6:50 AM52 °FDrizzle. Partly sunny.8 mph94%29.68 "Hg3 mi
5:50 AM52 °FDrizzle. Low clouds.9 mph94%29.65 "Hg2 mi
4:50 AM52 °FPassing clouds.9 mph94%29.68 "Hg4 mi
3:50 AM52 °FDrizzle. Low clouds.8 mph94%29.68 "Hg3 mi
2:50 AM52 °FSprinkles. Passing clouds.9 mph88%29.68 "HgN/A
1:50 AM54 °FPartly cloudy.12 mph82%29.71 "HgN/A
11:50 PM
Fri, Apr 24
54 °FPartly cloudy.12 mph77%29.74 "HgN/A
10:50 PM54 °FPassing clouds.12 mph77%29.74 "HgN/A
9:50 PM54 °FPartly cloudy.7 mph77%29.74 "HgN/A
8:50 PM55 °FOvercast.6 mph72%29.74 "HgN/A
7:50 PM59 °FOvercast.8 mph59%29.74 "HgN/A
6:50 PM59 °FPartly sunny.13 mph63%29.74 "HgN/A
5:50 PM63 °FPartly sunny.14 mph59%29.74 "HgN/A
4:50 PM64 °FBroken clouds.16 mph52%29.77 "Hg6 mi
3:50 PM64 °FBroken clouds.15 mph46%29.77 "HgN/A
2:50 PM66 °FSunny.13 mph37%29.77 "Hg10 mi
1:50 PM64 °FSunny.13 mph46%29.80 "Hg10 mi
12:50 PM64 °FSunny.13 mph40%29.83 "Hg10 mi
11:50 AM63 °FSunny.12 mph39%29.83 "Hg10 mi
10:50 AM59 °FSunny.10 mph55%29.86 "Hg10 mi
Weather by CustomWeather, © 2015

See weather overviewHow to use our weather pages